FW8345 Weather Reports


Display with metric or nautical units.
time (UTC)temp
F
wind
direction
speed
MPH
gust
MPH
rain 1hr
in
rain 24hr
in
rain mn
in
humidity
%
barometer
mb
20260507151037 60 143 4.0 9.0 0.00 0.00 0.00 60 1015.5
20260507150538 60 157 4.0 9.0 0.00 0.00 0.00 58 1015.6
20260507150049 60 214 4.0 8.0 0.00 0.00 0.00 60 1015.6
20260507145537 60 0 2.0 7.0 0.00 0.00 0.00 60 1015.7
20260507145037 60 185 3.0 8.0 0.00 0.00 0.00 52 1015.6
20260507144548 60 193 2.0 8.0 0.00 0.00 0.00 57 1015.7
20260507144039 59 186 1.0 8.0 0.00 0.00 0.00 56 1015.7
20260507143538 60 143 2.0 8.0 0.00 0.00 0.00 59 1015.7
20260507143050 60 185 3.0 9.0 0.00 0.00 0.00 58 1015.8
20260507142536 60 163 4.0 9.0 0.00 0.00 0.00 57 1015.8
20260507142036 60 0 1.0 7.0 0.00 0.00 0.00 58 1015.9
20260507141547 59 0 0.0 11.0 0.00 0.00 0.00 61 1015.9
20260507141036 58 179 4.0 11.0 0.00 0.00 0.00 58 1015.9
20260507140536 58 141 5.0 11.0 0.00 0.00 0.00 60 1016.0
20260507140053 59 134 6.0 11.0 0.00 0.00 0.00 60 1016.0
20260507135538 59 142 2.0 10.0 0.00 0.00 0.00 63 1016.1
20260507135037 58 152 5.0 10.0 0.00 0.00 0.00 58 1016.0
20260507134554 59 142 6.0 10.0 0.00 0.00 0.00 56 1016.1
20260507134037 60 121 4.0 9.0 0.00 0.00 0.00 59 1016.1
20260507133538 59 144 2.0 7.0 0.00 0.00 0.00 60 1016.1
20260507133052 58 106 3.0 8.0 0.00 0.00 0.00 59 1016.1
20260507132537 58 212 4.0 10.0 0.00 0.00 0.00 60 1016.1
20260507132041 58 161 5.0 10.0 0.00 0.00 0.00 59 1016.1
20260507131602 59 144 2.0 10.0 0.00 0.00 0.00 58 1016.2
20260507131036 59 0 1.0 9.0 0.00 0.00 0.00 61 1016.2
20260507130538 59 168 3.0 9.0 0.00 0.00 0.00 62 1016.2
20260507130105 58 142 1.0 10.0 0.00 0.00 0.00 59 1016.2
20260507125536 59 110 5.0 10.0 0.00 0.00 0.00 54 1016.2
20260507125037 62 138 4.0 10.0 0.00 0.00 0.00 54 1016.2
20260507124554 62 195 7.0 10.0 0.00 0.00 0.00 58 1016.2
20260507124038 62 114 2.0 8.0 0.00 0.00 0.00 58 1016.2
20260507123537 61 200 4.0 11.0 0.00 0.00 0.00 59 1016.3
20260507123046 59 136 5.0 11.0 0.00 0.00 0.00 57 1016.3
20260507122537 59 144 6.0 13.0 0.00 0.00 0.00 57 1016.3
20260507122038 59 126 5.0 13.0 0.00 0.00 0.00 61 1016.4
20260507121602 60 122 5.0 10.0 0.00 0.00 0.00 56 1016.4
20260507121037 60 132 3.0 9.0 0.00 0.00 0.00 60 1016.5
20260507120537 60 140 4.0 9.0 0.00 0.00 0.00 61 1016.6
20260507120100 59 132 2.0 9.0 0.00 0.00 0.00 62 1016.5
20260507115538 59 185 3.0 9.0 0.00 0.00 0.00 64 1016.6
20260507115037 59 132 0.0 8.0 0.00 0.00 0.00 65 1016.6
20260507114604 59 165 1.0 6.0 0.00 0.00 0.00 63 1016.6
20260507114037 58 201 2.0 11.0 0.00 0.00 0.00 62 1016.7
20260507113538 58 150 4.0 12.0 0.00 0.00 0.00 62 1016.6
20260507113051 59 174 5.0 12.0 0.00 0.00 0.00 61 1016.6
20260507112537 59 128 5.0 10.0 0.00 0.00 0.00 62 1016.7
20260507112037 59 163 5.0 10.0 0.00 0.00 0.00 63 1016.7
20260507111547 59 131 4.0 10.0 0.00 0.00 0.00 64 1016.7
20260507111038 59 0 3.0 12.0 0.00 0.00 0.00 62 1016.8
20260507110539 58 172 5.0 12.0 0.00 0.00 0.00 64 1017.0
20260507110048 58 188 2.0 9.0 0.00 0.00 0.00 64 1017.0
20260507105537 58 135 1.0 10.0 0.00 0.00 0.00 64 1017.0
20260507105041 57 157 5.0 11.0 0.00 0.00 0.00 64 1017.0
20260507104549 58 133 3.0 11.0 0.00 0.00 0.00 67 1017.0
20260507104038 58 147 3.0 11.0 0.00 0.00 0.00 64 1017.1
20260507103542 58 158 5.0 11.0 0.00 0.00 0.00 66 1017.1
20260507103051 57 153 6.0 11.0 0.00 0.00 0.00 68 1017.1
20260507102538 56 115 5.0 11.0 0.00 0.00 0.00 68 1017.2
20260507102038 56 148 5.0 10.0 0.00 0.00 0.00 70 1017.3
20260507101546 56 121 5.0 11.0 0.00 0.00 0.00 71 1017.3
20260507101037 56 145 6.0 11.0 0.00 0.00 0.00 72 1017.4
20260507100542 55 139 3.0 10.0 0.00 0.00 0.00 74 1017.4
20260507100048 55 145 6.0 11.0 0.00 0.00 0.00 75 1017.3
20260507095537 54 126 6.0 11.0 0.00 0.00 0.00 75 1017.3
20260507095038 53 134 3.0 12.0 0.00 0.00 0.00 75 1017.3
20260507094548 53 154 5.0 12.0 0.00 0.00 0.00 75 1017.3
20260507094038 53 115 6.0 11.0 0.00 0.00 0.00 77 1017.3
20260507093538 52 134 2.0 8.0 0.00 0.00 0.00 79 1017.3
20260507093055 52 149 3.0 8.0 0.00 0.00 0.00 78 1017.3
20260507092538 52 116 2.0 9.0 0.00 0.00 0.00 77 1017.2
20260507092037 52 126 5.0 9.0 0.00 0.00 0.00 78 1017.3
20260507091552 51 130 4.0 9.0 0.00 0.00 0.00 79 1017.3
20260507091038 51 171 4.0 11.0 0.00 0.00 0.00 79 1017.4
20260507090538 51 128 7.0 11.0 0.00 0.00 0.00 79 1017.3
20260507090047 51 135 5.0 9.0 0.00 0.00 0.00 79 1017.3
20260507085537 51 159 4.0 10.0 0.00 0.00 0.00 80 1017.3
20260507085038 50 159 5.0 10.0 0.00 0.00 0.00 80 1017.3
20260507084547 50 113 5.0 9.0 0.00 0.00 0.00 80 1017.3
20260507084036 50 128 5.0 9.0 0.00 0.00 0.00 81 1017.4
20260507083537 50 141 4.0 9.0 0.00 0.00 0.00 82 1017.4
20260507083050 49 163 3.0 8.0 0.00 0.00 0.00 83 1017.3
20260507082538 49 134 3.0 9.0 0.00 0.00 0.00 83 1017.3
20260507082037 49 136 3.0 9.0 0.00 0.00 0.00 83 1017.4
20260507081554 49 137 5.0 9.0 0.00 0.00 0.00 82 1017.3
20260507081038 49 142 6.0 9.0 0.00 0.00 0.00 83 1017.3
20260507080537 49 127 5.0 11.0 0.00 0.00 0.00 84 1017.3
20260507080057 48 184 3.0 11.0 0.00 0.00 0.00 84 1017.3
20260507075538 48 150 4.0 8.0 0.00 0.00 0.00 85 1017.3
20260507075038 48 137 3.0 10.0 0.00 0.00 0.00 86 1017.3
20260507074600 47 136 6.0 10.0 0.00 0.00 0.00 86 1017.3
20260507074037 47 136 5.0 10.0 0.00 0.00 0.00 86 1017.3
20260507073540 46 146 4.0 9.0 0.00 0.00 0.00 86 1017.2
20260507073046 46 167 3.0 12.0 0.00 0.00 0.00 86 1017.2
20260507072538 46 144 6.0 12.0 0.00 0.00 0.00 86 1017.2
20260507072036 46 129 7.0 12.0 0.00 0.00 0.00 87 1017.2
20260507071546 46 134 5.0 11.0 0.00 0.00 0.00 87 1017.2
20260507071038 46 140 7.0 11.0 0.00 0.00 0.00 87 1017.2
20260507070538 46 145 7.0 11.0 0.00 0.00 0.00 88 1017.2
20260507070046 45 131 5.0 10.0 0.00 0.00 0.00 88 1017.2
20260507065538 45 138 4.0 8.0 0.00 0.00 0.00 88 1017.2
20260507065037 45 140 3.0 8.0 0.00 0.00 0.00 89 1017.2
20260507064543 45 150 4.0 8.0 0.00 0.00 0.00 90 1017.1
20260507064041 44 181 4.0 8.0 0.00 0.00 0.00 90 1017.1
20260507063537 44 162 2.0 7.0 0.00 0.00 0.00 90 1017.1
20260507063048 44 145 3.0 7.0 0.00 0.00 0.00 91 1017.1
20260507062538 44 141 3.0 7.0 0.00 0.00 0.00 90 1017.0
20260507062040 43 153 2.0 7.0 0.00 0.00 0.00 91 1017.0
20260507061548 43 144 2.0 8.0 0.00 0.00 0.00 91 1017.0
20260507061035 43 167 3.0 8.0 0.00 0.00 0.00 91 1017.0
20260507060538 43 155 2.0 6.0 0.00 0.00 0.00 91 1017.0
20260507060049 43 0 2.0 8.0 0.00 0.00 0.00 91 1017.0
20260507055535 43 142 1.0 8.0 0.00 0.00 0.00 92 1016.9
20260507055038 43 164 1.0 6.0 0.00 0.00 0.00 92 1016.8
20260507054618 42 144 2.0 6.0 0.00 0.00 0.00 92 1016.7
20260507054039 42 119 2.0 8.0 0.00 0.00 0.00 92 1016.8
20260507053538 42 140 3.0 8.0 0.00 0.00 0.00 91 1016.8
20260507053049 42 148 3.0 7.0 0.00 0.00 0.00 92 1016.8
20260507052537 42 0 1.0 7.0 0.00 0.00 0.00 92 1016.8
20260507052038 42 125 2.0 7.0 0.00 0.00 0.00 92 1016.8
20260507051545 41 147 3.0 7.0 0.00 0.00 0.00 92 1016.8
20260507051038 41 124 2.0 7.0 0.00 0.00 0.00 92 1017.0
20260507050535 41 146 3.0 7.0 0.00 0.00 0.00 92 1017.0
20260507050056 41 116 2.0 7.0 0.00 0.00 0.00 91 1017.0
20260507045538 41 134 3.0 8.0 0.00 0.00 0.00 91 1017.0
20260507045038 41 133 5.0 8.0 0.00 0.00 0.00 91 1016.8
20260507044552 41 144 3.0 9.0 0.00 0.00 0.00 91 1016.8
20260507044040 41 143 4.0 9.0 0.00 0.00 0.00 91 1016.8
20260507043538 40 129 3.0 6.0 0.00 0.00 0.00 91 1016.8
20260507043047 40 129 3.0 6.0 0.00 0.00 0.00 91 1016.8
20260507042539 40 136 2.0 6.0 0.00 0.00 0.00 91 1016.7
20260507042038 40 123 3.0 7.0 0.00 0.00 0.00 91 1016.7
20260507041551 40 122 3.0 10.0 0.00 0.00 0.00 91 1016.7
20260507041038 40 117 4.0 10.0 0.00 0.00 0.00 91 1016.8
20260507040538 40 132 6.0 10.0 0.00 0.00 0.00 91 1016.7
20260507040047 40 138 3.0 6.0 0.00 0.00 0.00 91 1016.7
20260507035537 40 143 3.0 6.0 0.00 0.00 0.00 91 1016.7
20260507035038 40 135 2.0 5.0 0.00 0.00 0.00 91 1016.7
20260507034551 40 98 0.0 4.0 0.00 0.00 0.00 91 1016.7
20260507034037 40 0 0.0 4.0 0.00 0.00 0.00 91 1016.7
20260507033537 40 122 2.0 4.0 0.00 0.00 0.00 91 1016.7
20260507033053 40 120 2.0 4.0 0.00 0.00 0.00 91 1016.7
20260507032538 40 144 0.0 3.0 0.00 0.00 0.00 91 1016.7
20260507032037 40 0 0.0 4.0 0.00 0.00 0.00 91 1016.8
20260507031602 40 0 1.0 4.0 0.00 0.00 0.00 91 1016.8
20260507031037 40 135 2.0 4.0 0.00 0.00 0.00 91 1016.8
20260507030537 40 0 0.0 4.0 0.00 0.00 0.00 91 1017.0
20260507030054 40 126 1.0 4.0 0.00 0.00 0.00 91 1016.8
20260507025538 40 119 1.0 4.0 0.00 0.00 0.00 90 1016.8
20260507025037 40 130 2.0 3.0 0.00 0.00 0.00 91 1016.7
20260507024546 40 120 1.0 3.0 0.00 0.00 0.00 90 1016.7
20260507024037 40 115 1.0 3.0 0.00 0.00 0.00 90 1016.7
20260507023537 40 0 0.0 0.0 0.00 0.00 0.00 90 1016.6
20260507023044 40 0 0.0 0.0 0.00 0.00 0.00 90 1016.6
20260507022539 40 0 0.0 0.0 0.00 0.00 0.00 90 1016.6
20260507022038 40 0 0.0 3.0 0.00 0.00 0.00 90 1016.6
20260507021547 40 0 0.0 3.0 0.00 0.00 0.00 90 1016.6
20260507021037 40 109 1.0 3.0 0.00 0.00 0.00 90 1016.4
20260507020538 40 0 0.0 3.0 0.00 0.00 0.00 90 1016.5
20260507020047 40 0 0.0 3.0 0.00 0.00 0.00 90 1016.4
20260507015537 40 87 1.0 3.0 0.00 0.00 0.00 90 1016.5
20260507015038 40 93 0.0 3.0 0.00 0.00 0.00 90 1016.4
20260507014555 40 99 1.0 4.0 0.00 0.00 0.00 90 1016.5
20260507014036 40 112 1.0 4.0 0.00 0.00 0.00 90 1016.5
20260507013537 40 0 2.0 4.0 0.00 0.00 0.00 90 1016.6
20260507013047 40 89 1.0 3.0 0.00 0.00 0.00 90 1016.7
20260507012538 40 109 2.0 3.0 0.00 0.00 0.00 90 1016.7
20260507012037 40 106 2.0 3.0 0.00 0.00 0.00 90 1016.7
20260507011546 40 90 1.0 4.0 0.00 0.00 0.00 90 1016.7
20260507011034 40 111 1.0 4.0 0.00 0.00 0.00 90 1016.7
20260507010538 40 112 2.0 6.0 0.00 0.00 0.00 90 1016.8
20260507010046 40 130 2.0 6.0 0.00 0.00 0.00 90 1016.8
20260507005538 40 120 3.0 6.0 0.00 0.00 0.00 89 1016.8
20260507005037 40 125 3.0 6.0 0.00 0.00 0.00 90 1016.9
20260507004544 41 106 3.0 7.0 0.00 0.00 0.00 90 1016.8
20260507004038 41 112 3.0 7.0 0.00 0.00 0.00 90 1016.8
20260507003541 40 117 3.0 7.0 0.00 0.00 0.00 90 1016.9
20260507003053 40 121 3.0 7.0 0.00 0.00 0.00 90 1017.0
20260507002537 40 111 3.0 6.0 0.00 0.00 0.00 90 1017.0
20260507002044 40 124 3.0 6.0 0.00 0.00 0.00 90 1017.0
20260507001553 40 110 3.0 7.0 0.00 0.00 0.00 90 1017.0
20260507001037 40 127 3.0 7.0 0.00 0.00 0.00 90 1017.1
20260507000541 40 127 3.0 7.0 0.00 0.00 0.00 89 1017.1
20260507000048 40 123 4.0 7.0 0.00 0.00 0.00 89 1017.1
20260506235537 40 119 4.0 7.0 0.00 0.00 0.00 89 1017.1
20260506235037 40 129 4.0 8.0 0.00 0.00 0.00 89 1017.2
20260506234554 40 120 3.0 8.0 0.00 0.00 0.00 89 1017.2
20260506234038 40 133 3.0 8.0 0.00 0.00 0.00 89 1017.2
20260506233538 39 117 4.0 7.0 0.00 0.00 0.00 89 1017.2
20260506233102 40 141 3.0 7.0 0.00 0.00 0.00 88 1017.2
20260506232537 40 112 3.0 6.0 0.00 0.00 0.00 88 1017.1
20260506232037 40 123 3.0 4.0 0.00 0.00 0.00 88 1017.1
20260506231553 40 121 3.0 5.0 0.00 0.00 0.00 88 1017.1
20260506231037 40 121 2.0 5.0 0.00 0.00 0.00 88 1017.1
20260506230537 40 132 2.0 5.0 0.00 0.00 0.00 88 1017.1
20260506230053 40 139 2.0 4.0 0.00 0.00 0.00 88 1017.2
20260506225539 40 125 0.0 3.0 0.00 0.00 0.00 88 1017.2
20260506225039 40 0 1.0 3.0 0.00 0.00 0.00 88 1017.2
20260506224550 40 121 1.0 4.0 0.00 0.00 0.00 88 1017.1
20260506224037 40 92 1.0 4.0 0.00 0.00 0.00 88 1017.2
20260506223537 40 97 1.0 4.0 0.00 0.00 0.00 88 1017.1
20260506223050 40 111 2.0 4.0 0.00 0.00 0.00 88 1017.3
20260506222540 40 113 2.0 6.0 0.00 0.00 0.00 88 1017.1
20260506222038 40 115 3.0 6.0 0.00 0.00 0.00 88 1017.2
20260506221550 40 98 2.0 7.0 0.00 0.00 0.00 87 1017.3
20260506221037 40 117 2.0 7.0 0.00 0.00 0.00 87 1017.1
20260506220537 40 111 3.0 7.0 0.00 0.00 0.00 87 1017.0
20260506220044 40 126 3.0 7.0 0.00 0.00 0.00 87 1017.1
20260506215539 40 119 3.0 7.0 0.00 0.00 0.00 86 1017.0
20260506215037 40 113 3.0 7.0 0.00 0.00 0.00 86 1017.0
20260506214550 41 108 3.0 7.0 0.00 0.00 0.00 86 1017.0
20260506214036 41 113 3.0 6.0 0.00 0.00 0.00 86 1016.9
20260506213537 41 121 3.0 6.0 0.00 0.00 0.00 86 1016.9
20260506213105 41 137 3.0 6.0 0.00 0.00 0.00 85 1017.0
20260506212538 41 117 3.0 6.0 0.00 0.00 0.00 85 1017.0
20260506212038 41 123 3.0 6.0 0.00 0.00 0.00 85 1016.9
20260506211551 42 97 2.0 6.0 0.00 0.00 0.00 85 1016.9
20260506211038 42 122 2.0 6.0 0.00 0.00 0.00 85 1016.9
20260506210537 42 93 2.0 6.0 0.00 0.00 0.00 85 1016.8
20260506210054 42 99 2.0 6.0 0.00 0.00 0.00 84 1016.7
20260506205541 42 89 2.0 7.0 0.00 0.00 0.00 84 1016.7
20260506205037 42 119 3.0 8.0 0.00 0.00 0.00 84 1016.7
20260506204550 42 104 4.0 8.0 0.00 0.00 0.00 85 1016.6
20260506204038 42 121 3.0 8.0 0.00 0.00 0.00 84 1016.6
20260506203536 42 117 2.0 7.0 0.00 0.00 0.00 84 1016.5
20260506203046 43 129 3.0 7.0 0.00 0.00 0.00 84 1016.6
20260506202539 43 120 2.0 6.0 0.00 0.00 0.00 84 1016.6
20260506202036 43 139 3.0 8.0 0.00 0.00 0.00 84 1016.5
20260506201550 43 119 3.0 9.0 0.00 0.00 0.00 84 1016.6
20260506201035 43 113 4.0 9.0 0.00 0.00 0.00 83 1016.5
20260506200535 43 123 4.0 9.0 0.00 0.00 0.00 82 1016.3
20260506200051 43 122 4.0 9.0 0.00 0.00 0.00 82 1016.3
20260506195537 44 131 4.0 9.0 0.00 0.00 0.00 81 1016.2
20260506195037 44 130 3.0 5.0 0.00 0.00 0.00 80 1016.1
20260506194618 44 127 3.0 9.0 0.00 0.00 0.00 80 1016.1
20260506194036 44 130 4.0 9.0 0.00 0.00 0.00 80 1016.0
20260506193537 44 119 5.0 9.0 0.00 0.00 0.00 79 1016.0
20260506193102 45 126 4.0 9.0 0.00 0.00 0.00 78 1016.0
20260506192536 45 101 3.0 8.0 0.00 0.00 0.00 78 1016.0
20260506192037 45 88 3.0 8.0 0.00 0.00 0.00 77 1016.0
20260506191547 46 111 3.0 8.0 0.00 0.00 0.00 77 1015.9
20260506191036 46 127 4.0 8.0 0.00 0.00 0.00 77 1015.8
20260506190536 46 111 3.0 11.0 0.00 0.00 0.00 77 1015.9
20260506190057 46 111 5.0 11.0 0.00 0.00 0.00 76 1015.9
20260506185537 46 90 3.0 9.0 0.00 0.00 0.00 76 1015.9
20260506185037 47 82 3.0 9.0 0.00 0.00 0.00 76 1015.9
20260506184550 47 93 3.0 10.0 0.00 0.00 0.00 75 1015.9
20260506184037 47 117 6.0 10.0 0.00 0.00 0.00 74 1015.9
20260506183538 47 113 5.0 9.0 0.00 0.00 0.00 75 1015.8
20260506183051 47 95 4.0 8.0 0.00 0.00 0.00 75 1015.9
20260506182537 48 129 2.0 8.0 0.00 0.00 0.00 74 1016.1
20260506182037 48 73 4.0 9.0 0.00 0.00 0.00 74 1016.0
20260506181553 48 123 4.0 12.0 0.00 0.00 0.00 73 1016.0
20260506181038 48 141 3.0 12.0 0.00 0.00 0.00 74 1015.9
20260506180538 48 108 5.0 12.0 0.00 0.00 0.00 73 1015.9
20260506180104 48 134 6.0 10.0 0.00 0.00 0.00 72 1015.9
20260506175537 49 71 5.0 9.0 0.00 0.00 0.00 72 1015.8
20260506175038 49 88 5.0 9.0 0.00 0.00 0.00 72 1015.8
20260506174550 49 63 4.0 11.0 0.00 0.00 0.00 72 1015.7
20260506174037 49 84 3.0 11.0 0.00 0.00 0.00 72 1015.7
20260506173537 49 102 6.0 11.0 0.00 0.00 0.00 71 1015.6
20260506173049 49 64 4.0 11.0 0.00 0.00 0.00 71 1015.6
20260506172537 49 59 5.0 10.0 0.00 0.00 0.00 70 1015.6
20260506172038 50 83 4.0 11.0 0.00 0.00 0.00 70 1015.6
20260506171550 50 64 5.0 11.0 0.00 0.00 0.00 69 1015.6
20260506171038 50 112 6.0 11.0 0.00 0.00 0.00 68 1015.6
20260506170538 51 113 4.0 9.0 0.00 0.00 0.00 69 1015.5
20260506170057 51 82 3.0 9.0 0.00 0.00 0.00 68 1015.5
20260506165537 51 46 3.0 9.0 0.00 0.00 0.00 67 1015.6
20260506165039 51 131 4.0 9.0 0.00 0.00 0.00 68 1015.5
20260506164548 51 87 4.0 10.0 0.00 0.00 0.00 66 1015.5
20260506164040 52 96 6.0 10.0 0.00 0.00 0.00 66 1015.6
20260506163540 52 80 4.0 10.0 0.00 0.00 0.00 67 1015.5
20260506163106 52 67 5.0 9.0 0.00 0.00 0.00 67 1015.5
20260506162540 52 82 1.0 10.0 0.00 0.00 0.00 67 1015.5
20260506162041 52 75 4.0 10.0 0.00 0.00 0.00 65 1015.5
20260506161548 52 42 2.0 7.0 0.00 0.00 0.00 65 1015.5
20260506161040 52 105 2.0 8.0 0.00 0.00 0.00 66 1015.4
20260506160537 52 71 3.0 8.0 0.00 0.00 0.00 65 1015.4
20260506160050 52 102 3.0 7.0 0.00 0.00 0.00 66 1015.3
20260506155539 52 88 3.0 9.0 0.00 0.00 0.00 65 1015.4
20260506155038 52 61 4.0 9.0 0.00 0.00 0.00 65 1015.5
20260506154607 52 76 4.0 9.0 0.00 0.00 0.00 65 1015.3
20260506154037 52 92 4.0 9.0 0.00 0.00 0.00 63 1015.4
20260506153536 52 92 3.0 8.0 0.00 0.00 0.00 62 1015.4
20260506153058 52 81 2.0 8.0 0.00 0.00 0.00 62 1015.3
20260506152537 52 109 2.0 6.0 0.00 0.00 0.00 60 1015.3
20260506152038 52 114 2.0 7.0 0.00 0.00 0.00 63 1015.3
20260506151550 52 65 3.0 8.0 0.00 0.00 0.00 60 1015.5